User: anonymous   Login
Location: Peebles
(55.6412°N, 3.1714°W)
Time: 03:11:32
(UTC+01:00)
Language:

deb Kosmos-1275 - Orbit

View from above orbital plane
View from above orbital plane
View from above satellite
View from above satellite

Ground track
Ground track

The orbit data is extracted from the following two-line orbital elements,

1 13074U 81053FA  22181.52289622  .00000251  00000-0  21803-3 0  9997
2 13074  82.9462 185.8822 0031786  24.3268  98.7638 13.82106881 56383
Epoch (UTC): 30 June 2022 12:32:58
Eccentricity: 0.0031786
inclination: 82.9462°
perigee height: 933 km
apogee height: 980 km
right ascension of ascending node: 185.8822°
argument of perigee: 24.3268°
revolutions per day: 13.82106881
mean anomaly at epoch: 98.7638°
orbit number at epoch: 5638

The dashed part of the orbit path shows where the satellite is in the earth's shadow,  

DLR